Weather History for Abbeville, LA

Change the Weather History Date:

Wednesday, July 3, 2013

  Actual Average (KARA) Record (KARA)
Temperature  
Mean Temperature 80 °F 82 °F  
Max Temperature 92 °F 91 °F 101 °F (1980)
Min Temperature 69 °F 73 °F 62 °F (1955)
Degree Days  
Heating Degree Days 0 0  
Month to date heating degree days 0  
Since 1 June heating degree days 0  
Since 1 July heating degree days 0  
Cooling Degree Days 16 17  
Month to date cooling degree days 51  
Year to date cooling degree days 1092  
Since 1 June cooling degree days 522  
Growing Degree Days 30 (Base 50)    
Moisture  
Dew Point 63 °F    
Average Humidity 61    
Maximum Humidity 88    
Minimum Humidity 24    
Precipitation  
Precipitation 0.00 in 0.22 in 4.87 in (1986)
Month to date precipitation 0.64  
Year to date precipitation 29.77  
Sea Level Pressure  
Sea Level Pressure 29.98 in    
Wind  
Wind Speed 3 mph (NE)    
Max Wind Speed 13 mph    
Max Gust Speed 18 mph    
Visibility 10 miles    
Events      
T = Trace of Precipitation, MM = Missing Value Source: NWS Daily Summary

Daily Weather History Graph

Daily Weather History Graph

Search for Another Location

Airport:

Trip Planner

Search our weather history database for the weather conditions in past years. The results will help you decide how hot, cold, wet, or windy it might be!

Date:

Astronomy

Jul. 03, 2013 Rise Set
Actual Time 6:11 AM CDT 8:13 PM CDT
Civil Twilight 5:44 AM CDT 8:40 PM CDT
Nautical Twilight 5:11 AM CDT 9:13 PM CDT
Astronomical Twilight 4:36 AM CDT 9:49 PM CDT
Moon 2:41 AM CDT (7/3) 4:30 PM CDT (7/3)
Length of Visible Light 14h 56m
Length of Day
14h 01m
Waning Crescent, 18% of the Moon is Illuminated
Jul 3
Waning Crescent
Jul 8
New
Jul 15
First Quarter
Jul 22
Full
Jul 29
Last Quarter

Hourly Weather History & Observations

Time (CDT) Temp. Heat Index Dew Point Humidity Pressure Visibility Wind Dir Wind Speed Gust Speed Precip Events Conditions
12:15 AM 73.6 °F - 61.3 °F 65% 30.00 in 10.0 mi Calm Calm - N/A   Clear
12:35 AM 72.5 °F - 63.1 °F 72% 30.00 in 10.0 mi Calm Calm - N/A   Clear
12:55 AM 71.1 °F - 63.1 °F 76% 30.00 in 10.0 mi Calm Calm - N/A   Clear
1:15 AM 71.6 °F - 63.1 °F 75% 29.99 in 10.0 mi Calm Calm - N/A   Clear
1:35 AM 71.2 °F - 62.6 °F 74% 29.99 in 10.0 mi Calm Calm - N/A   Clear
1:55 AM 70.3 °F - 63.5 °F 79% 29.99 in 10.0 mi Calm Calm - N/A   Clear
2:15 AM 70.5 °F - 64.2 °F 80% 29.98 in 10.0 mi Calm Calm - N/A   Clear
2:35 AM 70.2 °F - 64.0 °F 81% 29.98 in 10.0 mi Calm Calm - N/A   Clear
2:55 AM 69.8 °F - 64.6 °F 83% 29.98 in 10.0 mi NNW 3.5 mph - N/A   Clear
3:15 AM 69.8 °F - 64.6 °F 83% 29.98 in 10.0 mi Calm Calm - N/A   Clear
3:35 AM 69.8 °F - 64.4 °F 83% 29.98 in 10.0 mi NW 3.5 mph - N/A   Clear
3:55 AM 69.6 °F - 64.4 °F 83% 29.98 in 10.0 mi Calm Calm - N/A   Clear
4:15 AM 69.6 °F - 64.6 °F 84% 29.98 in 10.0 mi Calm Calm - N/A   Clear
4:35 AM 69.8 °F - 64.9 °F 84% 29.98 in 10.0 mi North 3.5 mph - N/A   Clear
4:55 AM 69.6 °F - 65.8 °F 88% 29.98 in 10.0 mi Calm Calm - N/A   Clear
5:15 AM 70.3 °F - 65.3 °F 84% 29.98 in 10.0 mi Calm Calm - N/A   Clear
5:35 AM 70.0 °F - 65.7 °F 86% 29.98 in 10.0 mi Calm Calm - N/A   Clear
5:55 AM 70.0 °F - 65.5 °F 86% 29.98 in 10.0 mi North 3.5 mph - N/A   Clear
6:15 AM 70.2 °F - 65.5 °F 85% 29.98 in 10.0 mi Calm Calm - N/A   Clear
6:35 AM 70.0 °F - 65.3 °F 85% 29.98 in 10.0 mi Calm Calm - N/A   Clear
6:55 AM 70.9 °F - 66.2 °F 85% 29.99 in 10.0 mi Calm Calm - N/A   Clear
7:15 AM 72.1 °F - 66.7 °F 83% 29.99 in 10.0 mi NNE 3.5 mph - N/A   Clear
7:35 AM 73.4 °F - 67.1 °F 81% 30.00 in 10.0 mi NE 3.5 mph - N/A   Clear
7:55 AM 74.3 °F - 67.3 °F 79% 30.01 in 10.0 mi NNE 4.6 mph - N/A   Clear
8:15 AM 75.4 °F - 67.8 °F 77% 30.01 in 10.0 mi NNE 3.5 mph - N/A   Clear
8:35 AM 77.9 °F - 66.9 °F 69% 30.01 in 10.0 mi NE 3.5 mph - N/A   Clear
8:55 AM 79.7 °F - 64.9 °F 61% 30.01 in 10.0 mi NNE 6.9 mph - N/A   Clear
9:15 AM 81.7 °F 82.9 °F 63.0 °F 53% 30.02 in 10.0 mi NE 6.9 mph - N/A   Clear
9:35 AM 82.6 °F 83.9 °F 63.9 °F 53% 30.02 in 10.0 mi NE 4.6 mph - N/A   Clear
9:55 AM 83.5 °F 84.5 °F 63.3 °F 50% 30.03 in 10.0 mi NNE 5.8 mph - N/A   Clear
10:15 AM 84.7 °F 85.4 °F 62.4 °F 47% 30.02 in 10.0 mi NNE 8.1 mph - N/A   Clear
10:35 AM 85.6 °F 86.1 °F 62.1 °F 45% 30.02 in 10.0 mi NE 5.8 mph - N/A   Clear
10:55 AM 86.9 °F 87.2 °F 62.1 °F 43% 30.02 in 10.0 mi NE 9.2 mph - N/A   Clear
11:15 AM 87.1 °F 87.0 °F 61.0 °F 41% 30.02 in 10.0 mi NE 8.1 mph - N/A   Clear
11:35 AM 87.8 °F 87.6 °F 60.4 °F 40% 30.01 in 10.0 mi NE 6.9 mph - N/A   Clear
11:55 AM 88.2 °F 87.3 °F 58.6 °F 37% 30.01 in 10.0 mi NNE 5.8 mph - N/A   Clear
12:15 PM 88.9 °F 88.3 °F 59.2 °F 37% 30.01 in 10.0 mi NNE 8.1 mph - N/A   Clear
12:35 PM 88.7 °F 87.3 °F 57.0 °F 34% 30.00 in 10.0 mi NNE 9.2 mph 16.1 mph N/A   Scattered Clouds
12:55 PM 88.7 °F 87.5 °F 57.9 °F 35% 30.00 in 10.0 mi NNE 6.9 mph - N/A   Scattered Clouds
1:15 PM 89.8 °F 88.6 °F 57.7 °F 34% 29.99 in 10.0 mi NNE 4.6 mph - N/A   Scattered Clouds
1:35 PM 90.7 °F 89.2 °F 56.7 °F 32% 29.98 in 10.0 mi NNE 9.2 mph - N/A   Scattered Clouds
1:55 PM 91.2 °F 89.6 °F 56.7 °F 31% 29.98 in 10.0 mi NNE 9.2 mph - N/A   Scattered Clouds
2:15 PM 90.7 °F 89.0 °F 56.5 °F 31% 29.97 in 10.0 mi NNE 9.2 mph 16.1 mph N/A   Scattered Clouds
2:35 PM 91.2 °F 88.9 °F 53.8 °F 28% 29.96 in 10.0 mi North 8.1 mph - N/A   Clear
2:55 PM 91.2 °F - 52.5 °F 27% 29.96 in 10.0 mi NNE 9.2 mph - N/A   Clear
3:15 PM 91.8 °F - 52.3 °F 26% 29.96 in 10.0 mi NE 10.4 mph - N/A   Clear
3:35 PM 92.3 °F - 51.1 °F 24% 29.97 in 10.0 mi ESE 12.7 mph 17.3 mph N/A   Scattered Clouds
3:55 PM 84.6 °F 84.2 °F 59.0 °F 42% 29.95 in 10.0 mi East 10.4 mph 18.4 mph N/A   Mostly Cloudy
4:15 PM 87.3 °F 86.7 °F 59.5 °F 39% 29.96 in 10.0 mi East 10.4 mph - N/A   Scattered Clouds
4:35 PM 88.2 °F 87.6 °F 59.9 °F 38% 29.95 in 10.0 mi East 8.1 mph - N/A   Clear
4:55 PM 88.5 °F 88.1 °F 59.7 °F 38% 29.95 in 10.0 mi East 3.5 mph - N/A   Clear
5:15 PM 87.8 °F 87.1 °F 59.0 °F 38% 29.95 in 10.0 mi ENE 4.6 mph - N/A   Clear
5:35 PM 87.8 °F 87.9 °F 61.5 °F 41% 29.94 in 10.0 mi East 4.6 mph - N/A   Scattered Clouds
5:55 PM 86.7 °F 87.0 °F 62.1 °F 43% 29.94 in 10.0 mi ENE 6.9 mph - N/A   Scattered Clouds
6:15 PM 86.2 °F 86.3 °F 61.2 °F 43% 29.93 in 10.0 mi ENE 3.5 mph - N/A   Clear
6:35 PM 84.6 °F 85.0 °F 61.9 °F 46% 29.93 in 10.0 mi ENE 5.8 mph - N/A   Clear
6:55 PM 83.3 °F 84.4 °F 63.7 °F 51% 29.93 in 10.0 mi ENE 4.6 mph - N/A   Clear
7:15 PM 82.4 °F 84.2 °F 65.3 °F 56% 29.94 in 10.0 mi ENE 4.6 mph - N/A   Clear
7:35 PM 81.5 °F 83.4 °F 65.5 °F 58% 29.94 in 10.0 mi ENE 5.8 mph - N/A   Clear
7:55 PM 81.0 °F 82.6 °F 64.4 °F 57% 29.94 in 10.0 mi NE 3.5 mph - N/A   Clear
8:15 PM 79.5 °F - 65.3 °F 62% 29.95 in 10.0 mi Calm Calm - N/A   Clear
8:35 PM 78.1 °F - 65.8 °F 66% 29.96 in 10.0 mi Calm Calm - N/A   Clear
8:55 PM 77.9 °F - 64.8 °F 64% 29.96 in 10.0 mi Calm Calm - N/A   Clear
9:15 PM 77.0 °F - 65.5 °F 67% 29.96 in 10.0 mi Calm Calm - N/A   Clear
9:35 PM 76.1 °F - 66.0 °F 71% 29.96 in 10.0 mi NE 3.5 mph - N/A   Clear
9:55 PM 75.9 °F - 66.4 °F 72% 29.97 in 10.0 mi Calm Calm - N/A   Clear
10:15 PM 75.4 °F - 66.9 °F 75% 29.97 in 10.0 mi Calm Calm - N/A   Clear
10:35 PM 75.2 °F - 67.1 °F 76% 29.98 in 10.0 mi Calm Calm - N/A   Clear
10:55 PM 74.8 °F - 67.5 °F 78% 29.98 in 10.0 mi Calm Calm - N/A   Clear
11:15 PM 74.5 °F - 68.4 °F 81% 29.98 in 10.0 mi Calm Calm - N/A   Scattered Clouds
11:35 PM 74.3 °F - 68.5 °F 82% 29.98 in 10.0 mi Calm Calm - N/A   Scattered Clouds
11:55 PM 73.4 °F - 68.7 °F 85% 29.98 in 10.0 mi Calm Calm - N/A   Clear